TimeCST,TemperatureF,Dew PointF,Humidity,Sea Level PressureIn,VisibilityMPH,Wind Direction,Wind SpeedMPH,Gust SpeedMPH,PrecipitationIn,Events,Conditions,WindDirDegrees,DateUTC
12:15 AM,53.6,46.4,77,30.09,10.0,Calm,Calm,-,N/A,,Clear,0,2012-11-05 06:15:00
12:35 AM,51.8,46.4,82,30.09,10.0,Calm,Calm,-,N/A,,Clear,0,2012-11-05 06:35:00
12:55 AM,51.8,46.4,82,30.09,10.0,Calm,Calm,-,N/A,,Clear,0,2012-11-05 06:55:00
1:15 AM,53.6,46.4,77,30.08,10.0,Calm,Calm,-,N/A,,Clear,0,2012-11-05 07:15:00
1:35 AM,51.8,46.4,82,30.08,10.0,Calm,Calm,-,N/A,,Clear,0,2012-11-05 07:35:00
1:55 AM,51.8,46.4,82,30.07,10.0,Calm,Calm,-,N/A,,Clear,0,2012-11-05 07:55:00
2:15 AM,51.8,48.2,88,30.06,10.0,Calm,Calm,-,N/A,,Clear,0,2012-11-05 08:15:00
2:35 AM,50.0,46.4,87,30.07,10.0,Calm,Calm,-,N/A,,Clear,0,2012-11-05 08:35:00
2:55 AM,50.0,46.4,87,30.06,10.0,Calm,Calm,-,N/A,,Clear,0,2012-11-05 08:55:00
3:15 AM,53.6,46.4,77,30.06,10.0,Calm,Calm,-,N/A,,Clear,0,2012-11-05 09:15:00
3:35 AM,51.8,46.4,82,30.06,10.0,NW,3.5,-,N/A,,Clear,320,2012-11-05 09:35:00
3:55 AM,51.8,46.4,82,30.06,10.0,NW,3.5,-,N/A,,Clear,320,2012-11-05 09:55:00
4:15 AM,51.8,46.4,82,30.06,10.0,Calm,Calm,-,N/A,,Clear,0,2012-11-05 10:15:00
4:35 AM,51.8,46.4,82,30.06,10.0,North,3.5,-,N/A,,Clear,360,2012-11-05 10:35:00
4:55 AM,51.8,46.4,82,30.05,10.0,North,3.5,-,N/A,,Clear,350,2012-11-05 10:55:00
5:15 AM,48.2,46.4,93,30.05,10.0,Calm,Calm,-,N/A,,Clear,0,2012-11-05 11:15:00
5:35 AM,50.0,46.4,87,30.06,10.0,North,3.5,-,N/A,,Clear,10,2012-11-05 11:35:00
5:55 AM,51.8,46.4,82,30.06,10.0,North,4.6,-,N/A,,Clear,360,2012-11-05 11:55:00
6:15 AM,51.8,46.4,82,30.06,10.0,North,3.5,-,N/A,,Clear,350,2012-11-05 12:15:00
6:35 AM,50.0,46.4,87,30.06,10.0,Calm,Calm,-,N/A,,Scattered Clouds,0,2012-11-05 12:35:00
6:55 AM,48.2,46.4,93,30.07,7.0,Calm,Calm,-,N/A,,Clear,0,2012-11-05 12:55:00
7:15 AM,50.0,46.4,87,30.06,10.0,Calm,Calm,-,N/A,,Clear,0,2012-11-05 13:15:00
7:35 AM,51.8,48.2,88,30.07,10.0,Calm,Calm,-,N/A,,Scattered Clouds,0,2012-11-05 13:35:00
7:55 AM,53.6,50.0,88,30.08,10.0,Calm,Calm,-,N/A,,Mostly Cloudy,0,2012-11-05 13:55:00
8:15 AM,55.4,50.0,82,30.08,10.0,Calm,Calm,-,N/A,,Mostly Cloudy,0,2012-11-05 14:15:00
8:35 AM,59.0,51.8,77,30.09,10.0,Calm,Calm,-,N/A,,Mostly Cloudy,0,2012-11-05 14:35:00
8:55 AM,59.0,51.8,77,30.08,10.0,South,3.5,-,N/A,,Mostly Cloudy,180,2012-11-05 14:55:00
9:15 AM,60.8,48.2,63,30.09,10.0,Calm,Calm,-,N/A,,Clear,0,2012-11-05 15:15:00
9:35 AM,62.6,48.2,59,30.09,10.0,Calm,Calm,-,N/A,,Clear,0,2012-11-05 15:35:00
9:55 AM,64.4,46.4,52,30.09,10.0,Calm,Calm,-,N/A,,Clear,0,2012-11-05 15:55:00
10:15 AM,68.0,46.4,46,30.09,10.0,NNW,5.8,-,N/A,,Clear,340,2012-11-05 16:15:00
10:35 AM,69.8,48.2,46,30.09,10.0,North,9.2,-,N/A,,Clear,350,2012-11-05 16:35:00
10:55 AM,69.8,41.0,35,30.09,10.0,North,10.4,-,N/A,,Clear,350,2012-11-05 16:55:00
11:15 AM,69.8,42.8,38,30.08,10.0,North,8.1,-,N/A,,Clear,350,2012-11-05 17:15:00
11:35 AM,71.6,44.6,38,30.07,10.0,NNW,12.7,-,N/A,,Clear,340,2012-11-05 17:35:00
11:55 AM,71.6,42.8,35,30.06,10.0,North,11.5,-,N/A,,Clear,350,2012-11-05 17:55:00
12:55 PM,73.4,41.0,31,30.04,10.0,NNW,15.0,21.9,N/A,,Clear,340,2012-11-05 18:55:00
1:15 PM,73.4,41.0,31,30.03,10.0,NNW,13.8,-,N/A,,Clear,340,2012-11-05 19:15:00
1:35 PM,73.4,39.2,29,30.03,10.0,NNW,16.1,23.0,N/A,,Clear,340,2012-11-05 19:35:00
1:55 PM,73.4,37.4,27,30.03,10.0,North,12.7,-,N/A,,Clear,350,2012-11-05 19:55:00
2:35 PM,73.4,35.6,25,30.02,10.0,NNW,17.3,23.0,N/A,,Clear,340,2012-11-05 20:35:00
2:55 PM,73.4,37.4,27,30.02,10.0,NNW,13.8,19.6,N/A,,Clear,340,2012-11-05 20:55:00
3:15 PM,73.4,37.4,27,30.02,10.0,NNW,11.5,-,N/A,,Clear,340,2012-11-05 21:15:00
3:35 PM,73.4,37.4,27,30.03,10.0,North,11.5,17.3,N/A,,Clear,10,2012-11-05 21:35:00
3:55 PM,73.4,37.4,27,30.03,10.0,NNW,13.8,18.4,N/A,,Clear,340,2012-11-05 21:55:00
4:15 PM,71.6,35.6,27,30.03,10.0,North,11.5,-,N/A,,Clear,350,2012-11-05 22:15:00
4:35 PM,71.6,35.6,27,30.03,10.0,North,9.2,-,N/A,,Clear,360,2012-11-05 22:35:00
4:55 PM,69.8,35.6,28,30.03,10.0,North,9.2,-,N/A,,Clear,350,2012-11-05 22:55:00
5:15 PM,68.0,37.4,33,30.03,10.0,North,8.1,-,N/A,,Clear,350,2012-11-05 23:15:00
5:35 PM,64.4,37.4,37,30.04,10.0,NNW,9.2,-,N/A,,Clear,340,2012-11-05 23:35:00
6:55 PM,60.8,37.4,42,30.06,10.0,NNW,9.2,-,N/A,,Clear,340,2012-11-06 00:55:00
7:15 PM,60.8,33.8,36,30.08,10.0,NW,5.8,-,N/A,,Clear,320,2012-11-06 01:15:00
7:35 PM,59.0,35.6,42,30.09,10.0,NNW,8.1,-,N/A,,Clear,330,2012-11-06 01:35:00
7:55 PM,59.0,35.6,42,30.09,10.0,NNW,6.9,-,N/A,,Clear,330,2012-11-06 01:55:00
8:15 PM,59.0,35.6,42,30.10,10.0,NNW,8.1,-,N/A,,Clear,340,2012-11-06 02:15:00
8:35 PM,57.2,33.8,41,30.10,10.0,North,10.4,-,N/A,,Clear,350,2012-11-06 02:35:00
8:55 PM,57.2,32.0,38,30.10,10.0,NNW,8.1,-,N/A,,Clear,340,2012-11-06 02:55:00
9:15 PM,55.4,33.8,44,30.10,10.0,North,6.9,-,N/A,,Clear,350,2012-11-06 03:15:00
9:35 PM,53.6,33.8,47,30.11,10.0,North,6.9,-,N/A,,Clear,350,2012-11-06 03:35:00
9:55 PM,51.8,33.8,50,30.11,10.0,NNW,4.6,-,N/A,,Clear,330,2012-11-06 03:55:00
10:15 PM,51.8,33.8,50,30.12,10.0,NNW,6.9,-,N/A,,Clear,340,2012-11-06 04:15:00
10:35 PM,53.6,32.0,44,30.12,10.0,North,9.2,-,N/A,,Clear,360,2012-11-06 04:35:00
10:55 PM,53.6,32.0,44,30.12,10.0,North,8.1,-,N/A,,Clear,10,2012-11-06 04:55:00
11:15 PM,51.8,33.8,50,30.13,10.0,North,6.9,-,N/A,,Clear,360,2012-11-06 05:15:00
11:35 PM,51.8,33.8,50,30.12,10.0,North,8.1,-,N/A,,Clear,360,2012-11-06 05:35:00
11:55 PM,51.8,33.8,50,30.12,10.0,North,8.1,-,N/A,,Clear,360,2012-11-06 05:55:00